Tracking 19181 objects as of 17-Jun-2018
HD Live streaming from Space Station
objects crossing your sky now

NIMBUS 2 DEB

Track NIMBUS 2 DEB now!
10-day predictions


NORAD ID: 28205
Int'l Code: 1966-040T
Perigee: 1,058.9 km
Apogee: 1,142.1 km
Inclination: 100.4 °
Period: 107.1 minutes
Semi major axis: 7471 km
RCS: 0.0168 m2 (small)
Launch date: May 15, 1966
Source: United States (US)
Launch site: AIR FORCE WESTERN TEST RANGE (AFWTR)

Note: This is SATELLITE DEBRIS
aabbcc
Your satellite tracking list
Your tracking list is empty




NASA's NSSDC Master Catalog

Two Line Element Set (TLE):
1 28205U 66040T   18167.55287056  .00000446  00000-0  83970-3 0  9998
2 28205 100.3680 265.4807 0055675 154.0694 326.5245 13.44288352698916
Source of the keplerian elements: AFSPC